SOYUZ-MS 12

Last updated on Fri Oct 04 2019 00:02:09 GMT+0000 (Coordinated Universal Time)

1 44069U 19013A 19275.53299769 .00002623 00000-0 53703-4 0 9996 2 44069 51.6438 188.9300 0007517 107.4717 257.5636 15.50137004191919
UTC large
Height (km)
Speed (km/s)
/
Latitude / Longitude
Inclination (degrees)
Orbital Period (minutes)
Azimuth
Elevation
Range (km)
Doppler Factor

Next 0 passes for location: London (51.5072 / 0.1276)

Sorry there are no passes over London.
SOYUZ-MS 12